Find Starlink 34598

NORAD ID: 64759 Int'l Des: 2025-147 Owner: SPXS Country: US Constellation: starlink operational
LEOCIRCULAR

現在のビュー

3D地球を読み込み中...

About Starlink 34598

Starlink 34598 (NORAD 64759) is a starlink constellation satellite (v2 mini) launched Jul 8, 2025 by SPXS of US. It operates in LEO, CIRCULAR orbit with a mass of 575.00 kg.

次回通過

Passes for default location (London). Set your location on the main map for personalized predictions.

高度履歴

Loading altitude history...

軌道要素

1 64759U 25147E 26263.05274486 .00010511 00000-0 32183-3 0 9993
2 64759 53.1599 56.1210 0001041 97.8216 262.2904 15.34395669 68515
Epoch: Sep 20, 2026 • Age: 19 hours

現在のステータス

高度 468.0 km
遠地点 / 近地点 N/A
速度 7.64 km/s
衛星直下点 51.01°N, 141.52°W
打ち上げ日 Jul 8, 2025
運用期間 1.2 years
タイプ internet

技術仕様

分類 Payload
質量 575.00 kg
乾燥質量 530.00 kg
長さ 0.30 m
スパン 29.00 m
形状 ? Box + pan
製造者 SPXS
バスタイプ Starlink V2MO
フェーズステータス In Orbit
所有者/国 SPXS/US

Most Searched